Tracking 26951 objects as of 3-Feb-2023
HD Live streaming from Space Station
objects crossing your sky now

STARLINK-3100

Track STARLINK-3100 now!
10-day predictions
STARLINK-3100 is classified as:


NORAD ID: 49144
Int'l Code: 2021-082Q
Perigee: 577.1 km
Apogee: 581.2 km
Inclination: 70.0 °
Period: 96.1 minutes
Semi major axis: 6950 km
RCS: Unknown
Launch date: September 14, 2021
Source: United States (US)
Launch site: AIR FORCE WESTERN TEST RANGE (AFWTR)
Your satellite tracking list
Your tracking list is empty




NASA's NSSDC Master Catalog

Two Line Element Set (TLE):
1 49144U 21082Q   23033.92225682  .00000415  00000-0  42608-4 0  9996
2 49144  69.9979 265.5227 0002954 271.3783  88.7038 14.98335930 76601
Source of the keplerian elements: AFSPC